Charleston, SC

5:04 AM EDT on June 23, 2017 (GMT -0400)
Charleston Executive

Weather History for KJZI - August, 2014

Change the Weather History Date:

Monday, August 25, 2014

  Actual Average (KCHS) Record (KCHS)
Temperature  
Mean Temperature 76 °F -  
Max Temperature 84 °F 88 °F 96 °F (1938)
Min Temperature 68 °F 71 °F 60 °F (1997)
Cooling Degree Days 11    
Growing Degree Days 26 (Base 50)    
Moisture  
Dew Point 66 °F    
Average Humidity 71    
Maximum Humidity 89    
Minimum Humidity 55    
Precipitation  
Precipitation 0.00 in - - ()
Sea Level Pressure  
Sea Level Pressure 30.00 in    
Wind  
Wind Speed 11 mph (NNE)    
Max Wind Speed 15 mph    
Max Gust Speed 21 mph    
Visibility 10 miles    
Events Rain    
Averages and records for this station are not official NWS values.
T = Trace of Precipitation, MM = Missing Value Source: NWS Daily Summary

Daily Weather History Graph

Daily Weather History Graph

Search for Another Location

Airport or City:

Trip Planner

Search our weather history database for the weather conditions in past years. The results will help you decide how hot, cold, wet, or windy it might be!

Date:

Astronomy

Aug. 25, 2014 Rise Set
Actual Time 6:50 AM EDT 7:53 PM EDT
Civil Twilight 6:24 AM EDT 8:18 PM EDT
Nautical Twilight 5:54 AM EDT 8:48 PM EDT
Astronomical Twilight 5:23 AM EDT 9:19 PM EDT
Moon 6:51 AM EDT (8/25) 7:47 PM EDT (8/25)
Length of Visible Light 13h 54m
Length of Day
13h 03m
New Moon, 0% of the Moon is Illuminated
Aug 25
New Moon
Sep 2
First Quarter
Sep 8
Full
Sep 15
Last Quarter
Sep 24
New

Hourly Weather History & Observations

Time (EDT) Temp. Heat Index Dew Point Humidity Pressure Visibility Wind Dir Wind Speed Gust Speed Precip Events Conditions
12:15 AM 77.0 °F - 68.0 °F 74% 29.99 in 10.0 mi NNE 11.5 mph 20.7 mph 0.00 in   Scattered Clouds
12:35 AM 77.0 °F - 66.2 °F 69% 29.99 in 10.0 mi NNE 12.7 mph 20.7 mph 0.00 in   Clear
12:55 AM 75.2 °F - 66.2 °F 73% 29.99 in 10.0 mi NNE 9.2 mph 18.4 mph 0.00 in   Clear
1:15 AM 75.2 °F - 66.2 °F 73% 30.00 in 10.0 mi NNE 9.2 mph - 0.00 in   Clear
1:35 AM 75.2 °F - 66.2 °F 73% 30.01 in 10.0 mi NNE 8.1 mph - 0.00 in   Clear
2:15 AM 73.4 °F - 66.2 °F 78% 30.01 in 10.0 mi NNE 11.5 mph - 0.00 in   Clear
2:35 AM 73.4 °F - 64.4 °F 73% 30.01 in 10.0 mi NNE 11.5 mph 16.1 mph 0.00 in   Clear
2:55 AM 71.6 °F - 64.4 °F 78% 30.00 in 10.0 mi NNE 8.1 mph - 0.00 in   Clear
3:15 AM 71.6 °F - 64.4 °F 78% 30.00 in 10.0 mi North 10.4 mph - 0.00 in   Clear
3:35 AM 71.6 °F - 62.6 °F 73% 29.99 in 10.0 mi NNE 12.7 mph - 0.00 in   Clear
3:55 AM 71.6 °F - 64.4 °F 78% 29.99 in 10.0 mi NNE 11.5 mph 17.3 mph 0.00 in   Clear
4:15 AM 71.6 °F - 64.4 °F 78% 29.99 in 10.0 mi NNE 11.5 mph - 0.00 in   Clear
4:35 AM 69.8 °F - 64.4 °F 83% 29.99 in 10.0 mi NNE 11.5 mph 17.3 mph 0.00 in   Clear
4:55 AM 69.8 °F - 64.4 °F 83% 29.98 in 10.0 mi NNE 11.5 mph 17.3 mph 0.00 in   Clear
5:15 AM 69.8 °F - 64.4 °F 83% 29.98 in 10.0 mi NNE 9.2 mph - 0.00 in   Clear
5:35 AM 69.8 °F - 64.4 °F 83% 29.99 in 10.0 mi North 11.5 mph - 0.00 in   Clear
5:55 AM 69.8 °F - 62.6 °F 78% 29.98 in 10.0 mi North 11.5 mph - 0.00 in   Clear
6:15 AM 69.8 °F - 62.6 °F 78% 29.99 in 10.0 mi NNE 12.7 mph 16.1 mph 0.00 in   Clear
6:35 AM 69.8 °F - 62.6 °F 78% 29.99 in 10.0 mi North 10.4 mph - 0.00 in   Clear
6:55 AM 69.8 °F - 62.6 °F 78% 30.00 in 10.0 mi North 8.1 mph - 0.00 in   Clear
7:15 AM 68.0 °F - 62.6 °F 83% 30.00 in 10.0 mi NNE 10.4 mph - 0.00 in   Clear
7:35 AM 69.8 °F - 62.6 °F 78% 30.01 in 10.0 mi North 11.5 mph 16.1 mph 0.00 in   Clear
7:55 AM 69.8 °F - 62.6 °F 78% 30.01 in 10.0 mi North 11.5 mph - 0.00 in   Clear
8:15 AM 69.8 °F - 62.6 °F 78% 30.02 in 10.0 mi North 10.4 mph 17.3 mph 0.00 in   Clear
8:35 AM 69.8 °F - 62.6 °F 78% 30.02 in 10.0 mi North 15.0 mph - 0.00 in   Clear
8:55 AM 71.6 °F - 62.6 °F 73% 30.01 in 10.0 mi North 11.5 mph - 0.00 in   Partly Cloudy
9:15 AM 71.6 °F - 62.6 °F 73% 30.01 in 10.0 mi NNE 13.8 mph 18.4 mph 0.00 in   Partly Cloudy
9:35 AM 73.4 °F - 62.6 °F 69% 30.01 in 10.0 mi North 13.8 mph - 0.00 in   Clear
9:55 AM 73.4 °F - 62.6 °F 69% 30.01 in 10.0 mi NNE 12.7 mph 17.3 mph 0.00 in   Clear
10:15 AM 73.4 °F - 62.6 °F 69% 30.02 in 10.0 mi North 12.7 mph - 0.00 in   Scattered Clouds
10:35 AM 73.4 °F - 62.6 °F 69% 30.02 in 10.0 mi NNE 10.4 mph - 0.00 in   Overcast
10:55 AM 75.2 °F - 62.6 °F 65% 30.02 in 10.0 mi NE 9.2 mph - 0.00 in   Scattered Clouds
11:15 AM 77.0 °F - 64.4 °F 65% 30.01 in 10.0 mi NNE 11.5 mph 18.4 mph 0.00 in   Clear
11:55 AM 78.8 °F - 64.4 °F 61% 30.02 in 10.0 mi NE 11.5 mph - 0.00 in   Clear
12:15 PM 78.8 °F - 64.4 °F 61% 30.02 in 10.0 mi NE 12.7 mph - 0.00 in   Clear
12:35 PM 80.6 °F 82.3 °F 64.4 °F 58% 30.02 in 10.0 mi NNE 11.5 mph 17.3 mph 0.00 in   Clear
12:55 PM 80.6 °F 82.3 °F 64.4 °F 58% 30.01 in 10.0 mi NNE 10.4 mph - 0.00 in   Clear
1:15 PM 80.6 °F 82.7 °F 66.2 °F 61% 30.01 in 10.0 mi NNE 12.7 mph - 0.00 in   Clear
1:35 PM 82.4 °F 84.6 °F 66.2 °F 58% 30.01 in 10.0 mi NE 11.5 mph 17.3 mph 0.00 in   Clear
1:55 PM 82.4 °F 84.6 °F 66.2 °F 58% 30.01 in 10.0 mi NE 10.4 mph - 0.00 in   Clear
2:35 PM 84.2 °F 86.6 °F 66.2 °F 55% 30.00 in 10.0 mi NE 11.5 mph - 0.00 in   Scattered Clouds
2:55 PM 84.2 °F 86.6 °F 66.2 °F 55% 30.00 in 10.0 mi NNE 13.8 mph 17.3 mph 0.00 in   Scattered Clouds
3:15 PM 84.2 °F 87.3 °F 68.0 °F 58% 29.99 in 10.0 mi NE 10.4 mph 17.3 mph 0.00 in   Scattered Clouds
3:35 PM 82.4 °F 85.4 °F 68.0 °F 62% 29.99 in 10.0 mi NNE 10.4 mph - 0.00 in   Overcast
3:55 PM 84.2 °F 87.3 °F 68.0 °F 58% 29.98 in 10.0 mi North 10.4 mph - 0.00 in   Overcast
4:15 PM 82.4 °F 85.4 °F 68.0 °F 62% 29.98 in 10.0 mi NNE 8.1 mph 16.1 mph 0.00 in   Overcast
4:35 PM 82.4 °F 85.4 °F 68.0 °F 62% 29.98 in 10.0 mi NNE 8.1 mph - 0.00 in   Overcast
4:55 PM 82.4 °F 86.3 °F 69.8 °F 66% 29.98 in 10.0 mi NNE 8.1 mph - 0.00 in   Overcast
5:15 PM 84.2 °F 88.4 °F 69.8 °F 62% 29.97 in 10.0 mi NNE 10.4 mph - 0.00 in   Overcast
5:35 PM 82.4 °F 86.3 °F 69.8 °F 66% 29.98 in 10.0 mi NNE 9.2 mph - 0.00 in Rain Light Rain
5:55 PM 84.2 °F 88.4 °F 69.8 °F 62% 29.97 in 10.0 mi NE 11.5 mph - 0.00 in   Mostly Cloudy
6:15 PM 84.2 °F 88.4 °F 69.8 °F 62% 29.98 in 10.0 mi North 12.7 mph 16.1 mph 0.00 in   Mostly Cloudy
6:35 PM 82.4 °F 86.3 °F 69.8 °F 66% 29.98 in 10.0 mi NNE 11.5 mph 18.4 mph 0.00 in   Scattered Clouds
6:55 PM 82.4 °F 86.3 °F 69.8 °F 66% 29.98 in 10.0 mi NNE 10.4 mph - 0.00 in   Clear
7:15 PM 82.4 °F 86.3 °F 69.8 °F 66% 29.98 in 10.0 mi NNE 11.5 mph 17.3 mph 0.00 in   Partly Cloudy
7:35 PM 80.6 °F 83.9 °F 69.8 °F 70% 29.98 in 10.0 mi NNE 13.8 mph 18.4 mph 0.00 in   Partly Cloudy
8:15 PM 80.6 °F 84.6 °F 71.6 °F 74% 29.98 in 10.0 mi NNE 6.9 mph - 0.00 in   Clear
8:35 PM 80.6 °F 84.6 °F 71.6 °F 74% 29.99 in 10.0 mi NNE 12.7 mph 19.6 mph 0.00 in   Scattered Clouds
8:55 PM 80.6 °F 84.6 °F 71.6 °F 74% 29.99 in 10.0 mi NE 11.5 mph 16.1 mph 0.00 in   Mostly Cloudy
9:15 PM 78.8 °F - 71.6 °F 78% 29.99 in 10.0 mi NE 12.7 mph 18.4 mph 0.00 in   Mostly Cloudy
9:35 PM 78.8 °F - 71.6 °F 78% 30.00 in 10.0 mi NE 3.5 mph - 0.00 in   Scattered Clouds
10:15 PM 78.8 °F - 71.6 °F 78% 30.01 in 10.0 mi NNE 8.1 mph 19.6 mph 0.00 in   Mostly Cloudy
10:35 PM 78.8 °F - 71.6 °F 78% 30.01 in 10.0 mi NNE 12.7 mph 19.6 mph 0.00 in   Mostly Cloudy
10:55 PM 75.2 °F - 71.6 °F 89% 30.02 in 7.0 mi NE 12.7 mph 17.3 mph 0.00 in   Mostly Cloudy
11:15 PM 77.0 °F - 71.6 °F 83% 30.02 in 10.0 mi NNE 9.2 mph 18.4 mph 0.00 in   Scattered Clouds
11:55 PM 75.2 °F - 71.6 °F 89% 30.02 in 10.0 mi North 11.5 mph - 0.00 in   Mostly Cloudy